www.pogodaiklimat.ru

Погода и климат >> Архив погоды >> Норвегия >> Torungen Fyr


ПОГОДА в Torungen Fyr

  • Прогноз погоды в Torungen Fyr
  • Монитор погоды в Torungen Fyr
  • Климат города

АРХИВ ПОГОДЫ в Torungen Fyr

Время (UTC), дата Ветер
(напр.,м/с)
 
Видим.   Явления Облачность Т
(С)
Тd
(С)
f
(%)
Тe
(С)
Тes
(С)
Комфортность P
(гПа)
Po
(гПа)
Тmin
(С)
Tmax
(С)
R
(мм)
R24
(мм)
S
(см)
02 11.10 СВ 8-9
{9}
н/о н/о +11.7 +9 +9 1023.2 1021.7
01 11.10 В 7-9
{9}
н/о н/о +11.8 +10 +10 1023.5 1022.1
03 11.10 СВ 9-11
{11}
н/о н/о +12.0 +9 +9 1022.6 1021.1
04 11.10 СВ 10-12
{12}
н/о н/о +11.9 +9 +9 1022.3 1020.9
05 11.10 СВ 12-13
{13}
н/о н/о +12.4 +9 +9 1021.7 1020.3
06 11.10 СВ 13-14
{14}
н/о н/о +12.1 +9 +9 1021.4 1020.0 +11.5 +13.2
08 11.10 СВ 14-16
{16}
н/о н/о +12.2 +9 +9 1021.4 1019.9
07 11.10 СВ 14-16
{16}
н/о н/о +12.0 +9 +9 1021.3 1019.8
09 11.10 СВ 15-19
{19}
н/о н/о +12.2 +9 +9 1020.3 1018.8
10 11.10 СВ 15-18
{19}
н/о н/о +11.8 +8 +8 1020.2 1018.8
11 11.10 СВ 15 н/о н/о +12.5 1020.0 1018.5
12 11.10 СВ 13-16
{19}
н/о н/о +12.9 +10 +10 1019.3 1017.9
14 11.10 СВ 13-16
{18}
н/о н/о +14.0 +11 +11 1017.5 1016.1
13 11.10 СВ 13-15
{17}
н/о н/о +13.2 +10 +10 1018.9 1017.4
15 11.10 СВ 10-12
{16}
н/о н/о +14.3 +12 +12 1017.5 1016.0
16 11.10 В 10-12
{14}
н/о н/о +14.4 +12 +12 1017.0 1015.6
17 11.10 В 9-10
{12}
н/о н/о +14.5 +13 +13 1017.3 1015.8
18 11.10 СВ 8-9
{18}
н/о н/о +14.4 +13 +13 1017.6 1016.1 +11.8 +14.8
20 11.10 СВ 9-10
{11}
н/о н/о +14.1 +12 +12 1016.9 1015.4
19 11.10 СВ 9-11
{11}
н/о н/о +14.3 +12 +12 1017.2 1015.7
21 11.10 В 6-8
{10}
н/о н/о +14.0 +13 +13 1017.3 1015.8
22 11.10 В 6-7
{8}
н/о н/о +13.7 +12 +12 1017.3 1015.9
23 11.10 СВ 5-6
{7}
н/о н/о +13.5 +12 +12 1017.0 1015.6
00 12.10 СВ 5-6
{11}
н/о н/о +13.4 +12 +12 1016.9 1015.5
02 12.10 СВ 5-7
{7}
н/о н/о +13.3 +12 +12 1016.6 1015.2
01 12.10 СВ 5-6
{7}
н/о н/о +13.4 +12 +12 1016.7 1015.3
03 12.10 СВ 6-7
{8}
н/о н/о +13.2 +12 +12 1016.3 1014.9
04 12.10 СВ 6-7
{7}
н/о н/о +13.1 +11 +11 1016.1 1014.6
05 12.10 СВ 7-8
{9}
н/о н/о +13.2 +11 +11 1016.1 1014.7
06 12.10 СВ 9-10
{11}
н/о н/о +13.2 +11 +11 1016.1 1014.7 +12.8 +14.6
08 12.10 СВ 7-8
{10}
н/о н/о +13.1 +11 +11 1016.6 1015.1
07 12.10 СВ 8-10
{10}
н/о н/о +13.2 +11 +11 1016.3 1014.9
09 12.10 СВ 8-9
{10}
н/о н/о +13.4 +11 +11 1016.4 1014.9
10 12.10 СВ 8-10
{10}
н/о н/о +13.4 +11 +11 1016.2 1014.8
11 12.10 В 7-8
{9}
н/о н/о +13.6 +12 +12 1016.6 1015.2
12 12.10 В 5-6
{10}
н/о н/о +13.6 +12 +12 1016.2 1014.8 0.2
14 12.10 Ю 5-6
{6}
н/о н/о +13.7 +13 +13 1016.7 1015.3
13 12.10 В 3-4
{5}
н/о н/о +13.7 +13 +13 1015.7 1014.2
15 12.10 ЮЗ 3-3
{6}
н/о н/о +13.6 +13 +13 1017.1 1015.6
16 12.10 ЮЗ 2-3
{3}
н/о н/о +13.7 +14 +14 1017.1 1015.6
17 12.10 Ю 6-8
{8}
н/о н/о +14.0 +13 +13 1017.1 1015.6
18 12.10 ЮЗ 5-6
{8}
н/о н/о +13.8 +13 +13 1017.2 1015.7 +12.9 +14.4 0.2
20 12.10 Ю 2-3
{4}
н/о н/о +13.8 +14 +14 1017.2 1015.7
19 12.10 ЮЗ 4-5
{7}
н/о н/о +13.7 +13 +13 1017.3 1015.9
21 12.10 ЮЗ 3-4
{5}
н/о н/о +14.1 +14 +14 1017.1 1015.6
22 12.10 ЮЗ 4-6
{8}
н/о н/о +14.2 +13 +13 1016.8 1015.3
23 12.10 ЮЗ 4-6
{8}
н/о н/о +14.4 +14 +14 1016.1 1014.6
00 13.10 Ю 6-9
{9}
н/о н/о +14.8 +14 +14 1015.3 1013.9
02 13.10 ЮЗ 7-9
{11}
н/о н/о +15.0 +14 +14 1014.7 1013.3
01 13.10 ЮЗ 3-6
{10}
н/о н/о +14.5 +14 +14 1014.8 1013.4
03 13.10 ЮЗ 7-8
{9}
н/о н/о +15.0 +14 +14 1014.7 1013.3
04 13.10 ЮЗ 8 н/о н/о +15.3 1014.4 1013.0
05 13.10 ЮЗ 7-8
{10}
н/о н/о +14.8 +13 +13 1014.2 1012.7
06 13.10 ЮЗ 8-10
{13}
н/о н/о +14.5 +13 +13 1014.2 1012.8 +13.5 +15.6
08 13.10 ЮЗ 8-9
{11}
н/о н/о +14.8 +13 +13 1015.1 1013.6
07 13.10 ЮЗ 9-10
{10}
н/о н/о +14.8 +13 +13 1014.6 1013.2
09 13.10 ЮЗ 7-8
{10}
н/о н/о +14.8 +13 +13 1015.2 1013.8
10 13.10 ЮЗ 9-10
{11}
н/о н/о +14.9 +13 +13 1015.4 1014.0
11 13.10 ЮЗ 8-9
{11}
н/о н/о +14.8 +13 +13 1015.4 1014.0
12 13.10 ЮЗ 6-7
{11}
н/о н/о +14.8 +14 +14 1015.3 1013.8
14 13.10 ЮЗ 5-6
{6}
н/о н/о +14.6 +14 +14 1014.9 1013.5
13 13.10 ЮЗ 5-6
{8}
н/о н/о +14.8 +14 +14 1015.3 1013.9
15 13.10 Ю 6-7
{7}
н/о н/о +15.0 +14 +14 1014.6 1013.2
16 13.10 ЮЗ 6-7
{8}
н/о н/о +15.1 +14 +14 1014.3 1012.8
17 13.10 З 5-6
{7}
н/о н/о +15.2 +14 +14 1014.4 1012.9
18 13.10 ЮЗ 7-9
{10}
н/о н/о +15.4 +14 +14 1014.4 1013.0 +14.4 +16.0 0.5
20 13.10 З 2-3
{6}
н/о н/о +15.1 +15 +15 1014.5 1013.1
19 13.10 ЮЗ 5-6
{7}
н/о н/о +15.3 +14 +14 1014.4 1012.9
21 13.10 ЮЗ 7-9
{9}
н/о н/о +16.1 +15 +15 1014.2 1012.8
22 13.10 ЮЗ 6-10
{10}
н/о н/о +16.5 +16 +16 1014.2 1012.7
23 13.10 ЮЗ 5-8
{10}
н/о н/о +15.7 +15 +15 1013.4 1012.0
00 14.10 ЮЗ 5-7
{10}
н/о н/о +15.5 +15 +15 1012.9 1011.5
02 14.10 Ю 8-10
{10}
н/о н/о +16.3 +15 +15 1012.1 1010.7
01 14.10 ЮЗ 6-8
{9}
н/о н/о +16.0 +15 +15 1012.6 1011.1
03 14.10 ЮЗ 6-7
{12}
н/о н/о +16.0 +15 +15 1011.8 1010.4
04 14.10 ЮЗ 5-8
{10}
н/о н/о +15.9 +15 +15 1011.3 1009.9
05 14.10 Ю 7-10
{10}
н/о н/о +15.4 +14 +14 1010.8 1009.4
06 14.10 ЮЗ 4-5
{12}
н/о н/о +14.9 +14 +14 1010.9 1009.5 +14.9 +16.8
08 14.10 Ю 3-4
{5}
н/о н/о +14.7 +14 +14 1011.0 1009.6
07 14.10 ЮЗ 4-5
{5}
н/о н/о +14.8 +14 +14 1010.9 1009.4
09 14.10 Ю 3-4
{10}
н/о н/о +15.0 +15 +15 1011.0 1009.6
10 14.10 Ю 2-2
{4}
н/о н/о +15.6 +16 +16 1010.8 1009.3
11 14.10 ЮВ 2-3
{4}
н/о н/о +15.0 +15 +15 1010.4 1008.9
12 14.10 ЮВ 2-2
{10}
н/о н/о +15.4 +16 +16 1009.9 1008.5
14 14.10 ЮЗ 1-2
{4}
н/о н/о +15.2 +16 +16 1008.8 1007.3
13 14.10 В 1-2
{2}
н/о н/о +15.1 +16 +16 1009.3 1007.8
15 14.10 ЮВ 1-2
{5}
н/о н/о +15.0 +16 +16 1008.5 1007.0
16 14.10 В 2-2
{3}
н/о н/о +14.4 +15 +15 1007.8 1006.4
17 14.10 В 4-5
{5}
н/о н/о +13.9 +13 +13 1007.4 1006.0
18 14.10 ЮВ 3-3
{5}
н/о н/о +14.0 +14 +14 1007.2 1005.8 +13.8 +15.9
20 14.10 Ю 6-7
{7}
н/о н/о +14.3 +13 +13 1007.1 1005.7
19 14.10 Ю 5-6
{6}
н/о н/о +14.3 +13 +13 1007.5 1006.1
21 14.10 Ю 7-8
{8}
н/о н/о +14.2 +13 +13 1006.9 1005.4
22 14.10 Ю 7-8
{9}
н/о н/о +13.9 +12 +12 1007.0 1005.6
23 14.10 Ю 6-7
{8}
н/о н/о +13.8 +12 +12 1006.9 1005.5
00 15.10 ЮЗ 5-6
{9}
н/о н/о +13.9 +13 +13 1007.1 1005.7
02 15.10 Ю 7-8
{8}
н/о н/о +13.9 +12 +12 1007.3 1005.9
01 15.10 Ю 6-7
{7}
н/о н/о +13.9 +12 +12 1007.4 1005.9
03 15.10 ЮЗ 10-12
{12}
н/о н/о +14.2 +12 +12 1007.5 1006.1
04 15.10 ЮЗ 6 н/о н/о +13.5 1007.7 1006.2
05 15.10 ЮЗ 6-7
{7}
н/о н/о +13.6 +12 +12 1008.3 1006.9
06 15.10 ЮЗ 6-7
{12}
н/о н/о +13.8 +12 +12 1008.7 1007.3 +13.4 +14.6
08 15.10 ЮЗ 8-9
{10}
н/о н/о +13.5 +12 +12 1010.2 1008.7
07 15.10 ЮЗ 8-9
{9}
н/о н/о +13.7 +12 +12 1009.4 1008.0
09 15.10 ЮЗ 8-9
{9}
н/о н/о +13.3 +11 +11 1010.5 1009.1
10 15.10 ЮЗ 7-9
{9}
н/о н/о +13.4 +12 +12 1010.9 1009.5
11 15.10 ЮЗ 6-7
{8}
н/о н/о +13.4 +12 +12 1011.2 1009.7
12 15.10 ЮЗ 5-5
{10}
н/о н/о +13.7 +13 +13 1011.1 1009.6 0.2
14 15.10 ЮЗ 4-5
{7}
н/о н/о +14.2 +13 +13 1011.7 1010.2
13 15.10 ЮЗ 6-7
{7}
н/о н/о +13.7 +12 +12 1011.1 1009.7
15 15.10 З 3-3
{4}
н/о н/о +14.2 +14 +14 1012.1 1010.7
16 15.10 СЗ 3-3
{3}
н/о н/о +13.8 +13 +13 1012.5 1011.1
17 15.10 ЮЗ 1-2
{3}
н/о н/о +13.4 +14 +14 1013.0 1011.5
18 15.10 З 3-4
{7}
н/о н/о +12.9 +12 +12 1013.7 1012.3 +12.8 +14.3 0.2
20 15.10 СЗ 2-3
{3}
н/о н/о +12.2 +12 +12 1014.0 1012.6
19 15.10 СЗ 2-3
{4}
н/о н/о +12.4 +12 +12 1014.1 1012.6
21 15.10 З 3-4
{4}
н/о н/о +11.9 +11 +11 1014.8 1013.4
22 15.10 З 4-5
{5}
н/о н/о +11.2 +10 +10 1015.4 1013.9
23 15.10 СЗ 3-29
{29}
н/о н/о +10.2 +9 +9 1015.6 1014.2
00 16.10 СЗ 3-4
{29}
н/о н/о +9.8 +9 +9 1015.7 1014.3 2
02 16.10 С 4-5
{5}
н/о н/о +9.2 +7 +7 1015.9 1014.4
01 16.10 С 3-3
{4}
н/о н/о +9.4 +8 +8 1015.6 1014.2
03 16.10 С 4-6
{6}
н/о н/о +8.9 +7 +7 1016.1 1014.7
04 16.10 С 4-5
{6}
н/о н/о +8.5 +7 +7 1016.7 1015.2
05 16.10 С 6-7
{7}
н/о н/о +8.5 +6 +6 1017.0 1015.5
06 16.10 С 5-5
{7}
н/о н/о +8.4 +6 +6 1017.4 1015.9 +7.9 +13.1 3
08 16.10 С 6-7
{7}
н/о н/о +9.2 +7 +7 1018.3 1016.8
07 16.10 С 5-6
{7}
н/о н/о +8.4 +6 +6 1017.8 1016.4
09 16.10 СВ 6-8
{8}
н/о н/о +9.8 +7 +7 1018.4 1017.0
10 16.10 СВ 6-8
{8}
н/о н/о +10.1 +8 +8 1018.3 1016.8
11 16.10 СВ 6-7
{9}
н/о н/о +10.3 +8 +8 1018.5 1017.0
12 16.10 СВ 7-9
{9}
н/о н/о +10.6 +8 +8 1018.3 1016.9
14 16.10 СВ 8-8
{11}
н/о н/о +10.4 +8 +8 1017.8 1016.3
13 16.10 СВ 9-10
{10}
н/о н/о +10.4 +7 +7 1017.9 1016.4
15 16.10 В 6-7
{8}
н/о н/о +10.3 +8 +8 1017.5 1016.0
16 16.10 СВ 4-5
{6}
н/о н/о +10.2 +9 +9 1017.8 1016.4
17 16.10 СВ 6-6
{6}
н/о н/о +10.5 +8 +8 1017.5 1016.0
18 16.10 В 5-6
{11}
н/о н/о +11.0 +9 +9 1017.3 1015.8 +8.1 +11.2 0.6
20 16.10 Ю 6-7
{7}
н/о н/о +11.9 +10 +10 1016.8 1015.3
19 16.10 ЮВ 6-7
{7}
н/о н/о +11.2 +9 +9 1017.1 1015.6
21 16.10 Ю 6-7
{9}
н/о н/о +12.5 +11 +11 1016.4 1014.9
22 16.10 Ю 6-7
{7}
н/о н/о +12.3 +11 +11 1016.4 1015.0
23 16.10 Ю 6-8
{8}
н/о н/о +12.4 +11 +11 1015.9 1014.5
00 17.10 ЮЗ 7-8
{10}
н/о н/о +12.4 +10 +10 1015.8 1014.4
02 17.10 Ю 6-7
{7}
н/о н/о +12.2 +10 +10 1014.8 1013.3
01 17.10 Ю 5-6
{8}
н/о н/о +12.3 +11 +11 1015.1 1013.7
03 17.10 Ю 5-6
{7}
н/о н/о +12.5 +11 +11 1014.4 1012.9
04 17.10 ЮЗ 9-10
{12}
н/о н/о +13.0 +11 +11 1014.1 1012.7
05 17.10 ЮЗ 9-11
{11}
н/о н/о +12.8 +10 +10 1014.1 1012.6
06 17.10 ЮЗ 9-11
{12}
н/о н/о +12.8 +10 +10 1014.3 1012.9 +10.8 +13.4 0.4
08 17.10 ЮЗ 10-12
{12}
н/о н/о +12.7 +10 +10 1015.1 1013.6
07 17.10 ЮЗ 10-11
{12}
н/о н/о +12.6 +10 +10 1014.7 1013.2
09 17.10 ЮЗ 9-11
{12}
н/о н/о +12.6 +10 +10 1015.4 1013.9
10 17.10 ЮЗ 8-9
{10}
н/о н/о +12.8 +11 +11 1015.4 1013.9
11 17.10 ЮЗ 8-9
{10}
н/о н/о +13.0 +11 +11 1015.5 1014.0
12 17.10 ЮЗ 8-10
{12}
н/о н/о +13.0 +11 +11 1015.5 1014.1 0.2
14 17.10 ЮЗ 7-8
{10}
н/о н/о +13.5 +12 +12 1015.4 1014.0
13 17.10 ЮЗ 8-9
{9}
н/о н/о +13.1 +11 +11 1015.5 1014.1
15 17.10 ЮЗ 7-8
{10}
н/о н/о +13.5 +12 +12 1015.5 1014.0
16 17.10 ЮЗ 8-8
{8}
н/о н/о +13.5 +12 +12 1015.8 1014.4
17 17.10 ЮЗ 6-7
{8}
н/о н/о +13.6 +12 +12 1016.3 1014.9
18 17.10 ЮЗ 6-7
{10}
н/о н/о +12.9 +11 +11 1017.0 1015.5 +12.4 +13.8 0.2
20 17.10 З 4-5
{6}
н/о н/о +11.3 +10 +10 1017.9 1016.4
19 17.10 З 4-6
{7}
н/о н/о +11.7 +10 +10 1017.3 1015.8
21 17.10 З 4-5
{5}
н/о н/о +10.4 +9 +9 1018.1 1016.6
22 17.10 СЗ 4-5
{6}
н/о н/о +10.3 +9 +9 1018.4 1016.9
23 17.10 З 4-4
{6}
н/о н/о +9.8 +8 +8 1018.7 1017.2

 

Местоположение метеостанции Torungen Fyr (Норвегия): широта 58.40 долгота 8.80 высота над уровнем моря 12 м.

В архиве по умолчанию представлена погода в Torungen Fyr за последнюю неделю. Архивные данные за месяц целиком и за предыдущие месяцы, начиная с января 2011 года, Вы можете получить, выбрав интересующий диапазон дат из раскрывающегося списка и нажав кнопку "Ввод!".


*Определитесь, кто Вы:
робот инопланетянин человек

Внимание! Время в таблицах - всемирное. Для получения местного времени необходимо прибавить поправку, которая в Torungen Fyr равна 1 ч.

Смотрите также архив погоды в соседних городах и на ближайших метеорологических станциях:

Погода в Landvik (Норвегия) (18 км)
Погода в Nelaug (Норвегия) (30 км)
Погода в Hynnekleiv (Норвегия) (31 км)
Погода в Lyngor Fyr (Норвегия) (33 км)
Погода в Kjevik (Норвегия) (48 км)
Погода в Gjerstad (Норвегия) (54 км)
Погода в Oksoy Fyr (Норвегия) (57 км)
Погода в Byglandsfjord-Neset (Норвегия) (66 км)
Погода в Jomfruland (Норвегия) (68 км)
Погода в Tveitsund (Норвегия) (72 км)

Пояснения к столбцам:

Ветер - указаны скорость ветра в м/с - средняя за 10 мин, порывы в срок и между сроками (в фигурных скобках) и направление, откуда дует ветер: С - северный, СВ - северо-восточный, В - восточный, ЮВ - юго-восточный, Ю - южный, ЮЗ - юго-западный, З - западный, СЗ - северо-западный.
Видимость - горизонтальная дальность видимости в метрах или километрах. При видимости от 1 до 10 км при отсутствии осадков обычно наблюдается дымка, при ухудшении видимости до 1 км и менее - туман. В сухую погоду видимость может ухудшаться дымом, пылью или мглою.
Явления - указаны атмосферные явления, наблюдавшиеся в срок или в последний час перед сроком; фигурными скобками обозначены явления, наблюдавшиеся между сроками (за 1-3 часа до срока); квадратными скобками обозначены град или гололедные отложения с указанием их диаметра в мм.
Облачность - указаны через наклонную черту общая и нижняя облачность в баллах и высота нижней границы облаков в метрах; квадратными скобками обозначены формы облаков: Ci - перистые, Cs - перисто-слоистые, Cc - перисто-кучевые, Ac - высококучевые, As - высокослоистые, Sc - слоисто-кучевые, Ns - слоисто-дождевые, Cu - кучевые, Cb - кучево-дождевые. Подробнее классификацию облаков см. в Атласе облаков (PDF).
T - Температура воздуха - температура, измеренная на высоте 2 м над землей.
Td - Температура точки росы - температура, при понижении до которой содержащийся в воздухе водяной пар достигнет насыщения.
f - Относительная влажность воздуха - влажноcть воздуха, измеренная на высоте 2 м над землей.
Te - Эффективная температура - температура, которую ощущает одетый по сезону человек в тени. Характеристика душности погоды. При расчете учитывается влияние влажности воздуха и скорости ветра на теплоощущения человека.
Tes - Эффективная температура на солнце - температура, которую ощущает человек, с поправкой на солнечный нагрев. Характеристика знойности погоды. Зависит от высоты солнца над горизонтом, облачности и скорости ветра. Ночью, в пасмурную погоду, а также при ветре 12 м/с и более поправка равна нулю.
P - Атмосферное давление - приведенное к уровню моря атмосферное давление.
Po - Атмосферное давление - измеренное на уровне метеостанции атмосферное давление.
Tmin - Минимальная температура - минимум температуры воздуха на высоте 2 м над землей.
Tmax - Максимальная температура - максимум температуры воздуха на высоте 2 м над землей.
R - Количество осадков - Количество выпавших осадков за период времени, мм. При наведении курсора мыши на число - период времени, за который выпало указанное количество осадков.
R24 - Количество осадков - Количество выпавших осадков за 24 часа, мм.
S - Снежный покров - Высота снежного покрова, см. При наведении курсора мыши на число - состояние снежного покрова и степень покрытия местности в баллах.